Regional Weather Roundup
Issued by NWS Albany, NY

Home | Current Version | Previous Version | Graphics & Text | Print | Product List | Glossary Off
Versions: 1 2 3 4 5 6 7 8 9 10 11 12 13 14 15 16 17 18 19 20 21 22 23 24 25 26 27 28 29 30 31 32 33 34 35 36 37 38 39 40 41 42 43 44 45 46 47 48 49 50

000
ASUS41 KALY 220410
RWRALY

NEW YORK STATE HOURLY WEATHER ROUNDUP
NATIONAL WEATHER SERVICE ALBANY NY
1200 AM EDT WED OCT 22 2014

NOTE: "FAIR" INDICATES FEW OR NO CLOUDS BELOW 12,000 FEET WITH NO
SIGNIFICANT WEATHER AND/OR NO OBSTRUCTIONS TO VISIBILITY.

NYZ032-033-038>043-046>054-057>066-NYZ062>081-220500-
EAST


CITY           SKY/WX    TMP DP  RH WIND       PRES   REMARKS
ALBANY         LGT RAIN  50  47  89 N7        30.03R FOG
GLENS FALLS    CLOUDY    51  45  79 N7        30.05R
POUGHKEEPSIE   CLOUDY    53  51  93 N5        29.96S
NEWBURGH       LGT RAIN  52  52 100 VRB3      29.96S FOG
MONTGOMERY     LGT RAIN  52  51  97 N9        29.95R
WHITE PLAINS   MOCLDY    54  50  86 N7        29.91S
ISLIP          CLOUDY    57  55  93 NE10      29.89F
NEW YORK CITY  MOCLDY    58  52  80 NE10      29.90S
CENTRAL PARK   MOCLDY    56  52  86 VRB6      29.93S
$$

NYZ005>009-017-018-044>046-055-056-220500-
CENTRAL


CITY           SKY/WX    TMP DP  RH WIND       PRES   REMARKS
FULTON         LGT RAIN  46  43  89 N13       30.05R FOG
SYRACUSE       CLOUDY    50  50  97 N6        30.03R
ROME           CLOUDY    51  46  83 CALM      30.04R
ELMIRA         CLOUDY    51  49  92 N12       30.00R
BINGHAMTON     CLOUDY    49  47  93 N7        29.97S
MONTICELLO     CLOUDY    48  46  93 NE6       29.97S
$$

NYZ026>034-041>043-220500-
NORTH


CITY           SKY/WX    TMP DP  RH WIND       PRES   REMARKS
WATERTOWN      CLOUDY    45  37  73 NE16G23   30.10R
FORT DRUM      NOT AVBL
MASSENA        CLOUDY    45  36  70 NE15      30.16S
SARANAC LAKE   CLOUDY    41  41 100 E7        30.08R FOG
PLATTSBURGH    CLOUDY    45  43  93 N16       30.12R
$$

NYZ001>004-010>016-019>021-220500-
WEST


CITY           SKY/WX    TMP DP  RH WIND       PRES   REMARKS
NIAGARA FALLS  CLOUDY    44  42  93 NE14      30.12R
BUFFALO        DRIZZLE   45  42  89 NE13      30.10R FOG
DUNKIRK        CLOUDY    47  43  86 NE12G21   30.10R
JAMESTOWN      CLOUDY    43  41  93 N13       30.05S
WELLSVILLE     FOG       44  43  96 N8        30.03R VSB 1/2
ROCHESTER      CLOUDY    47  45  93 NE15      30.08S
PENN YAN       LGT RAIN  47  46  97 VRB7      30.03S FOG
$$

             KEY
       WCI = WIND CHILL INDEX
       VSB = VISIBILITY
       HX  = HEAT INDEX
$$



USA.gov is the U.S. government's official web portal to all federal, state and local government web resources and services.